Milwaukee, WI

4:52 AM CDT on April 25, 2018 (GMT -0500)
Gen Mitchell International

Weather History for KMKE - September, 2013

Change the Weather History Date:

Sunday, September 29, 2013

  Actual Average Record
Temperature  
Mean Temperature 58 °F 58 °F  
Max Temperature 66 °F 66 °F 91 °F (1953)
Min Temperature 50 °F 49 °F 31 °F (1961)
Degree Days  
Heating Degree Days 7 8  
Month to date heating degree days 101 117  
Since 1 July heating degree days 123 143  
Cooling Degree Days 0 1  
Month to date cooling degree days 101 69  
Year to date cooling degree days 678 634  
Growing Degree Days 9 (Base 50)    
Moisture  
Dew Point 49 °F    
Average Humidity 70    
Maximum Humidity 96    
Minimum Humidity 44    
Precipitation  
Precipitation T in 0.09 in 1.40 in (1872)
Month to date precipitation 1.54 3.08  
Year to date precipitation 31.67 27.26  
Snow  
Snow 0.00 in 0.00 in T in (1993)
Month to date snowfall 0.0 0.0  
Since 1 July snowfall 0.0 0.0  
Since 1 September snowfall 0.0 0.0  
Snow Depth 0.00 in    
Sea Level Pressure  
Sea Level Pressure 30.02 in    
Wind  
Wind Speed 6 mph (NW)    
Max Wind Speed 10 mph    
Max Gust Speed 14 mph    
Visibility 10 miles    
Events Rain    
T = Trace of Precipitation, MM = Missing Value Source: NWS Daily Summary

Daily Weather History Graph

Daily Weather History Graph

Search for Another Location

Airport or City:

Astronomy

Sep. 29, 2013 Rise Set
Actual Time 6:46 AM CDT 6:35 PM CDT
Civil Twilight 6:18 AM CDT 7:04 PM CDT
Nautical Twilight 5:45 AM CDT 7:37 PM CDT
Astronomical Twilight 5:12 AM CDT 8:10 PM CDT
Moon 1:21 AM CDT (9/29) 3:37 PM CDT (9/29)
Length of Visible Light 12h 45m
Length of Day
11h 49m
Waning Crescent, 27% of the Moon is Illuminated
Sep 29
Waning Crescent
Oct 4
New
Oct 11
First Quarter
Oct 18
Full
Oct 26
Last Quarter

Hourly Weather History & Observations

Time (CDT) Temp. Dew Point Humidity Pressure Visibility Wind Dir Wind Speed Gust Speed Precip Events Conditions
12:31 AM 55.4 °F 53.6 °F 94% 29.95 in 10.0 mi NW 11.5 mph - 0.02 in   Overcast
12:52 AM 57.0 °F 54.0 °F 89% 29.96 in 10.0 mi NW 10.4 mph - 0.02 in Rain Light Rain
1:52 AM 57.0 °F 54.0 °F 89% 29.98 in 10.0 mi NW 8.1 mph - 0.00 in   Mostly Cloudy
2:52 AM 55.9 °F 53.1 °F 90% 29.98 in 10.0 mi WNW 8.1 mph - N/A   Partly Cloudy
3:52 AM 55.0 °F 53.1 °F 93% 29.99 in 10.0 mi WNW 3.5 mph - N/A   Partly Cloudy
4:52 AM 54.0 °F 52.0 °F 93% 30.00 in 10.0 mi NW 4.6 mph - N/A   Clear
5:52 AM 53.1 °F 51.1 °F 93% 30.02 in 10.0 mi WNW 5.8 mph - N/A   Clear
6:52 AM 52.0 °F 50.0 °F 93% 30.03 in 10.0 mi WNW 5.8 mph - N/A   Partly Cloudy
7:52 AM 53.1 °F 50.0 °F 89% 30.04 in 10.0 mi WNW 8.1 mph - N/A   Partly Cloudy
8:27 AM 55.4 °F 50.0 °F 82% 30.04 in 10.0 mi NW 8.1 mph - N/A   Scattered Clouds
8:52 AM 55.9 °F 50.0 °F 80% 30.05 in 10.0 mi NNW 10.4 mph - N/A   Scattered Clouds
9:52 AM 60.1 °F 48.9 °F 67% 30.06 in 10.0 mi NNW 5.8 mph - N/A   Partly Cloudy
10:52 AM 64.0 °F 46.9 °F 54% 30.06 in 10.0 mi Variable 5.8 mph - N/A   Partly Cloudy
11:52 AM 64.0 °F 42.1 °F 45% 30.06 in 10.0 mi ENE 6.9 mph - N/A   Clear
12:52 PM 64.9 °F 42.1 °F 43% 30.06 in 10.0 mi ENE 8.1 mph - N/A   Partly Cloudy
1:52 PM 66.0 °F 45.0 °F 47% 30.04 in 10.0 mi NE 8.1 mph - N/A   Partly Cloudy
2:52 PM 66.0 °F 44.1 °F 45% 30.03 in 10.0 mi ESE 8.1 mph - N/A   Partly Cloudy
3:52 PM 64.9 °F 48.0 °F 54% 30.02 in 10.0 mi ESE 5.8 mph - N/A   Clear
4:52 PM 63.0 °F 48.0 °F 58% 30.02 in 10.0 mi ESE 8.1 mph - N/A   Partly Cloudy
5:52 PM 61.0 °F 48.0 °F 62% 30.01 in 10.0 mi ESE 6.9 mph - N/A   Partly Cloudy
6:52 PM 59.0 °F 48.9 °F 69% 30.01 in 10.0 mi SSE 5.8 mph - N/A   Partly Cloudy
7:52 PM 57.9 °F 48.9 °F 72% 30.02 in 10.0 mi SSW 5.8 mph - N/A   Clear
8:52 PM 57.0 °F 48.0 °F 72% 30.02 in 10.0 mi SSW 3.5 mph - N/A   Clear
9:52 PM 55.9 °F 48.0 °F 75% 30.02 in 10.0 mi SSW 3.5 mph - N/A   Clear
10:52 PM 53.1 °F 46.9 °F 80% 30.02 in 10.0 mi WSW 3.5 mph - N/A   Clear
11:52 PM 52.0 °F 46.9 °F 83% 30.02 in 10.0 mi Calm Calm - N/A   Clear